Regional Weather Roundup
Issued by NWS Wakefield, VA

Home | Current Version | Previous Version | Text Only | Print | Product List | Glossary Off
Versions: 1 2 3 4 5 6 7 8 9 10 11 12 13 14 15 16 17 18 19 20 21 22 23 24 25 26 27 28 29 30 31 32 33 34 35 36 37 38 39 40 41 42 43 44 45 46 47 48 49 50

000
ASUS41 KAKQ 101710
RWRAKQ

REGIONAL WEATHER ROUNDUP
NATIONAL WEATHER SERVICE WAKEFIELD VA
100 PM EDT THU JUL 10 2014

Note: "fair" indicates few or no clouds below 12,000 feet with no
significant weather and/or obstructions to visibility. * = Denotes
station may not report precipitation (e.g., rain,snow,etc.),
thunder or fog.

VAZ042-051-052>054-056-101800-
NORTHERN VIRGINIA

CITY           SKY/WX    TMP DP  RH WIND       PRES   REMARKS
WASH NATIONAL  CLOUDY    86  68  54 NE6       30.08S
DULLES         MOSUNNY   85  63  47 NW5       30.08F
FORT BELVOIR   DRIZZLE   82  72  73 SE7       30.08S
QUANTICO       CLOUDY    79  71  76 CALM      30.08S
FREDERICKSBRG* PTSUNNY   83  71  67 NW5       30.07S
STAFFORD*      PTSUNNY   81  76  84 NW5       30.12S
WARRENTON      CLOUDY    82  74  77 CALM      30.09S
CULPEPER*      PTSUNNY  N/A N/A N/A CALM      30.10R
MANASSAS*      NOT AVBL
LEESBURG*      PTSUNNY   84  68  58 NE3       30.09F
WINCHESTER     MOSUNNY   84  59  42 CALM      30.10F
$$

VAZ048-049-060>072-079>083-101800-
CENTRAL AND SOUTH CENTRAL VIRGINIA...AND NORTH CENTRAL NORTH CAROLINA

CITY           SKY/WX    TMP DP  RH WIND       PRES   REMARKS
RICHMOND       LGT RAIN  78  71  79 SW6       30.09R
CHESTERFIELD*  CLOUDY    75  64  69 SW3       30.11S
HANOVER        CLOUDY    80  71  74 CALM      30.10R
TAPPAHANNOCK*  CLOUDY    81  67  62 CALM      30.08S
CHARLOTTSVILLE CLOUDY    80  66  62 CALM      30.10F
ORANGE*        CLOUDY    79  64  61 NW3       30.11F
LOUISA*        CLOUDY    81  66  61 N3        30.09S
FARMVILLE*     LGT RAIN  75  73  94 S7        30.09S
SOUTH HILL*    CLOUDY    75  75 100 N5        30.14S
ROANOKE RAPIDS CLOUDY    84  73  70 W5        30.07R
RALEIGH        CLOUDY    84  72  67 W12       30.08F
$$

VAZ088>098-101800-
SOUTHEAST VIRGINIA

CITY           SKY/WX    TMP DP  RH WIND       PRES   REMARKS
NORFOLK        CLOUDY    82  71  69 S6        30.07F
VIRGINIA BEACH CLOUDY    81  73  76 SW6       30.06F
NORFOLK NAVAL  CLOUDY    84  73  69 W6        30.08F
WEST POINT*    CLOUDY    80  72  75 W3        30.09S
NEWPORT NEWS   LGT RAIN  83  73  72 SW6       30.07F
LANGLEY AFB    CLOUDY    81  75  80 VRB3      30.06F
FORT EUSTIS    CLOUDY    79  78  97 S3        30.05F
WILLIAMSBURG*  CLOUDY    81  75  83 NW7       30.09R
FRANKLIN*      CLOUDY    81  73  78 CALM      30.06F
WAKEFIELD      CLOUDY    79  72  79 W3        30.08S
$$

VAZ020-022-025-037-045-101800-
WESTERN AND SOUTHWEST VIRGINIA

CITY           SKY/WX    TMP DP  RH WIND       PRES   REMARKS
STAUNTON*      CLOUDY    82  60  48 SE6       30.14F
HOT SPRINGS VA CLOUDY    70  54  56 E5        30.26S
LYNCHBURG      LGT RAIN  73  71  93 S6        30.15R
DANVILLE       LGT RAIN  72  68  87 NE3       30.12F
MARTINSVILLE   CLOUDY    77  70  78 CALM      30.15F
ROANOKE        CLOUDY    77  61  57 CALM      30.15F
BLACKSBURG     MOSUNNY   77  66  69 E3        30.19S
DUBLIN*        PTSUNNY   78  64  61 E3        30.18S
MARION*        PTSUNNY   79  64  60 CALM      30.20F
HILLSVILLE*    PTSUNNY   74  63  68 CALM      30.19F
RICHLANDS*     CLOUDY    79  61  55 N5        30.20S
WISE*          CLOUDY    73  59  60 N3        30.21S
ABINGDON*      CLOUDY    79  61  54 CALM      30.17S
$$

MDZ021>025-VAZ099-100-101800-
SOUTHERN MARYLAND AND THE DELMARVA PENINSULA

CITY           SKY/WX    TMP DP  RH WIND       PRES   REMARKS
PATUXENT RIVER CLOUDY    78  71  79 E5        30.08S
BAY BRIDGE APT   N/A     79  72  78 NW5       30.07F
LEONARDTOWN    CLOUDY    77  70  78 MISG      30.09F
DOVER          CLOUDY    75  75 100 NE5       30.07F
GEORGETOWN     CLOUDY    80  71  74 NE9       30.08S
EASTON         NOT AVBL
CAMBRIDGE      CLOUDY    81  70  69 CALM      30.07F
SALISBURY      LGT RAIN  82  72  69 SW5       30.07S
OCEAN CITY     CLOUDY    76  72  87 S6        30.08F
WALLOPS ISLAND LGT RAIN  83  72  69 W7        30.08S
ACCOMACK*        N/A     79  72  78 W5        30.07F
$$

NCZ012>017-030>032-101800-
EASTERN NORTH CAROLINA

CITY           SKY/WX    TMP DP  RH WIND       PRES   REMARKS
ELIZABETH CITY PTSUNNY   84  74  71 VRB7      30.07F
AHOSKIE*       CLOUDY    82  73  74 S3        30.07S
EDENTON*       PTSUNNY   83  74  74 S5        30.07F
CURRITUCK*     PTSUNNY   87  72  61 SW5       30.08F
KILL DEVIL HLS PTSUNNY   88  73  61 S8        30.06F HX  95
MANTEO         PTSUNNY   85  76  73 S18       30.08F HX  95
CAPE HATTERAS  SUNNY     88  76  67 SW13G18   30.11F HX  99
GOLDSBORO      PTSUNNY   88  76  67 S12       30.03F HX 100
WASHINGTON     PTSUNNY  N/A N/A N/A S8        30.08S
GREENVILLE     TSTM      73  70  88 CALM      30.09R
NEW BERN       CLOUDY    86  74  67 S8        30.09F
WILMINGTON     MOSUNNY   86  73  65 S14       30.09F
$$

VAZ048-101800-
ELSEWHERE

CITY           SKY/WX    TMP DP  RH WIND       PRES   REMARKS
HARRISBURG PA  PTSUNNY   85  60  42 S8        30.10S
BALTIMORE      PTSUNNY   81  70  69 E9        30.07F
ANNAPOLIS      PTSUNNY   80  71  74 E8        30.07F
ANDREWS AFB    PTSUNNY   82  71  71 NE8       30.09R
WILMINGTON DE  MOSUNNY   84  64  50 E8        30.10F
PHILADELPHIA   MOSUNNY   83  62  49 E9        30.10F
WILDWOOD NJ*   CLOUDY    75  66  73 E8        30.10F
ATLANTIC CITY  CLOUDY    73  69  87 NE10      30.10F
HENDERSON NC   LGT RAIN  74  68  81 N6        30.10S
GREENSBORO     CLOUDY    74  69  85 NE6       30.11F
ROCKY MOUNT    PTSUNNY   86  74  67 S8        30.05F
FAYETTEVILLE   MOSUNNY   91  70  49 SW9G16    30.05F HX  96
CHARLOTTE      CLOUDY    78  67  68 NW5       30.12S
$$

VAZ100-101800-
MARINE

STATION/POSITION TIME  TEMP    WIND        PRES    WAVE   SWELL
                       AIR SEA DIR/SP/G            HT/PER HT/PER
                 (UTC) (F)     (DEG/KT/KT) (MB)    (FT/S) (FT/S)
44066 TX TWR #4  1700   70 70  240/ 10/ 12 1019.4F   4/ 7   3/ 7
CAPE MAY NJ      1700   74 72  110/  7/ 11 1018.7R
LEWES DE         1700   76 69  110/  6/  7 1018.0S
15NM E FENWICK I 1700   73 72              1019.0F   3/ 5
OCEAN-CITY-INLET 1700   73 70  140/  4/  6 1018.4R
WACHAPREAGUE VA  1700   79 80  260/  2/  4 1018.2F
THOMAS POINT MD  1700   77 79   20/  4/  6 1018.9F
GOOSES REEF MD   1700   76      50/  4/  6 1019.1S
COVE POINT MD    1700   77      70/  2/  3 1018.5S
SOLOMONS ISLAND  1700      79                N/A
BISHOPS HEAD MD  1700   76 78  290/  5/  7 1018.4F
PINEY POINT MD   1700          360/  4/  5   N/A
POTOMAC MD       1700   78     340/  2/  2 1017.7S
CAMBRIDGE MD     1700   79 80   10/  2/  3 1018.0F
LEWISETTA VA     1700   79 80  350/  3/  6 1018.1F
RAPPAHANNOCK LGT 1700          200/  2/  3 1018.6F
STINGRAY PT      1700   77     240/  2/  2 1017.5S
YORK RVR RNG VA  1700   80     230/  2/  3 1017.4F
YORKTOWN VA      1700   80 80  260/  2/  4 1017.7S
JAMESTOWN VA     1700   76      CALM  /  6   N/A
DOMINION TERM VA 1700   79     220/  3/  4 1018.2F
KIPTOPEKE VA     1700      81  240/  4/  4   N/A
CHES BAY BRIDGE  1700   78 77  260/  6/  6 1017.7S
CAPE HENRY VA    1700   80     310/  3/  5 1017.2S
WILLOUBY STN VA  1700   78     230/  6/  7 1017.4F
S CRANEY ISL VA  1700          220/  3/  5 1018.2F
CAPE HENRY BUOY  1700      77                N/A     3/ 5
1ST LANDING BUOY 1700   78     290/  6/  8 1018.0F
CAPE CHARLES BUO 1700      73                N/A     2/ 6
OFFSHORE WE BUOY 1700      75                N/A     3/ 6
64NM E OF VA BCH 1700   78 76  220/  6/  6 1018.7F   3/ 6   3/ 6
DUCK PIER NC     1700   84 62  240/  7/  9 1017.7F
44056 DUCK FRF   1700                        N/A     2/11
OREGON INLET NC  1700   82 83  180/ 16/ 19 1018.8F
HATTERAS NC      1700   84 81  190/  7/ 13 1020.0F
DIAMOND SHLS NC  1700          VRB 12/ 14  1020.1S   4/ 6   3/ 6
CAPE LOOKOUT NC  1600   83     190/ 15/ 18 1019.7F
$$



USA.gov is the U.S. government's official web portal to all federal, state and local government web resources and services.